Nur fliegen ist schöner ....

Willkommen beim Flugservice Bautzen GmbH

Wir sind eine nach europäischen Richtlinien zugelassene Flugschule und lizenziertes Luftfahrtunternehmen. Bei uns können sie nicht nur Rundflüge über die Oberlausitz oder Sachsen buchen, sondern in unserer Flugschule selber das Fliegen erlernen. Erfahrene Fluglehrer stehen ihnen dabei zur Seite.

Wir bieten außerdem Businessflüghe sowie Transportleistungen auf dem Luftweg, ganz nach ihren Wünschen, an. Schauen sie sich in Ruhe bei uns um und wenn sie Fragen haben oder weitere Informationen benötigen, scheuen sie sich nicht Kontakt mit uns aufzunehmen.

Rundflüge können sie ganz leicht auch online in unserem Shop buchen.

Terminkalender

Letzter Monat Mai 2017 Nächster Monat
Mo Di Mi Do Fr Sa So
week 18 1 2 3 4 5 6 7
week 19 8 9 10 11 12 13 14
week 20 15 16 17 18 19 20 21
week 21 22 23 24 25 26 27 28
week 22 29 30 31

Flugwetterinfo

[Quelle: ADDS]
METAR
EDDC 300120Z 18004KT CAVOK 19/16 Q1012 =
TAF
EDDC 292300Z 3000/3024 17005KT CAVOK BECMG 3007/3009 23008KT PROB40 TEMPO 3012/3020 SHRA SCT025CB =
SR / SS: 02:52 / 19:06 UTC (EDAB Flugplatz Bautzen 2017-05-30)

Webcam EDAB

Webcam EDAB
Flugservice Bautzen GmbH, Kornmarkt 34, 02625 Bautzen  Telefon: +49 (3591) 211105, Telefax: +49 (3591) 274512, E-Mail:  flugservice(at)fsbautzen.de